Location: Ferma
(41.9500°N, 44.5167°E)
Time: 11:38:27
(UTC+00:00)

Cosmos 1269 Rocket - Pass Details

Date: 05 June 2022
Orbit: 773 x 778 km, 74.1° (Epoch: 01 July)

Event Time Altitude Azimuth Distance (km) Brightness Sun altitude
Rises 20:06:46 0° 346° (NNW) 3,258 8.7 -24.2°
Reaches altitude 10° 20:09:16 10° 353° (N) 2,327 7.6 -24.4°
Maximum altitude 20:14:18 44° 65° (ENE) 1,070 4.8 -24.6°
Enters shadow 20:15:24 38° 97° (E) 1,161 4.7 -24.6°
